| time (UTC) | temp C | wind direction | speed KPH | gust KPH | rain 1hr cm | rain 24hr cm | rain mn cm | humidity % | barometer mb |
| 20260505101027 | 22 | 160 | 4.8 | 8.0 | 0.00 | 0.00 | 0.00 | 93 | 1009.6 |
| 20260505100527 | 22 | 157 | 3.2 | 6.4 | 0.00 | 0.00 | 0.00 | 93 | 1009.7 |
| 20260505100048 | 22 | 166 | 3.2 | 6.4 | 0.00 | 0.00 | 0.00 | 93 | 1009.7 |
| 20260505095530 | 22 | 167 | 1.6 | 6.4 | 0.00 | 0.00 | 0.00 | 93 | 1009.7 |
| 20260505095027 | 22 | 167 | 1.6 | 6.4 | 0.00 | 0.00 | 0.00 | 93 | 1009.7 |
| 20260505094545 | 22 | 167 | 0.0 | 4.8 | 0.00 | 0.00 | 0.00 | 93 | 1009.8 |
| 20260505094029 | 22 | 0 | 0.0 | 6.4 | 0.00 | 0.00 | 0.00 | 93 | 1009.9 |
| 20260505093526 | 22 | 0 | 0.0 | 6.4 | 0.00 | 0.00 | 0.00 | 93 | 1009.9 |
| 20260505093042 | 22 | 167 | 1.6 | 6.4 | 0.00 | 0.00 | 0.00 | 93 | 1009.9 |
| 20260505092527 | 22 | 167 | 3.2 | 8.0 | 0.00 | 0.00 | 0.00 | 93 | 1009.9 |
| 20260505092026 | 22 | 163 | 1.6 | 8.0 | 0.00 | 0.00 | 0.00 | 93 | 1009.8 |
| 20260505091543 | 22 | 165 | 1.6 | 3.2 | 0.00 | 0.00 | 0.00 | 93 | 1009.9 |
| 20260505091027 | 22 | 165 | 0.0 | 3.2 | 0.00 | 0.00 | 0.00 | 93 | 1009.9 |
| 20260505090527 | 22 | 165 | 1.6 | 8.0 | 0.00 | 0.00 | 0.00 | 93 | 1010.0 |
| 20260505090050 | 22 | 165 | 1.6 | 8.0 | 0.00 | 0.00 | 0.00 | 93 | 1010.0 |
| 20260505085527 | 22 | 163 | 0.0 | 9.7 | 0.00 | 0.00 | 0.00 | 93 | 1010.0 |
| 20260505085027 | 22 | 163 | 1.6 | 9.7 | 0.00 | 0.00 | 0.00 | 93 | 1009.8 |
| 20260505084547 | 22 | 163 | 3.2 | 9.7 | 0.00 | 0.00 | 0.00 | 93 | 1009.9 |
| 20260505084026 | 22 | 161 | 1.6 | 11.3 | 0.00 | 0.00 | 0.00 | 92 | 1009.7 |
| 20260505083526 | 22 | 174 | 3.2 | 11.3 | 0.00 | 0.00 | 0.00 | 92 | 1009.8 |
| 20260505083050 | 22 | 165 | 3.2 | 11.3 | 0.00 | 0.00 | 0.00 | 92 | 1009.9 |
| 20260505082526 | 22 | 165 | 1.6 | 11.3 | 0.00 | 0.00 | 0.00 | 92 | 1010.0 |
| 20260505082027 | 22 | 167 | 4.8 | 11.3 | 0.00 | 0.00 | 0.00 | 91 | 1010.0 |
| 20260505081553 | 22 | 175 | 3.2 | 9.7 | 0.00 | 0.00 | 0.00 | 91 | 1010.0 |
| 20260505081026 | 22 | 163 | 4.8 | 9.7 | 0.00 | 0.00 | 0.00 | 91 | 1010.0 |
| 20260505080526 | 22 | 176 | 3.2 | 8.0 | 0.00 | 0.00 | 0.00 | 90 | 1010.1 |
| 20260505080046 | 22 | 169 | 3.2 | 8.0 | 0.00 | 0.00 | 0.00 | 90 | 1010.2 |
| 20260505075527 | 22 | 167 | 3.2 | 9.7 | 0.00 | 0.00 | 0.00 | 90 | 1010.3 |
| 20260505075027 | 22 | 163 | 1.6 | 9.7 | 0.00 | 0.00 | 0.00 | 90 | 1010.2 |
| 20260505074547 | 22 | 157 | 3.2 | 9.7 | 0.00 | 0.00 | 0.00 | 90 | 1010.2 |
| 20260505074027 | 22 | 166 | 3.2 | 8.0 | 0.00 | 0.00 | 0.00 | 90 | 1010.3 |
| 20260505073527 | 22 | 170 | 1.6 | 9.7 | 0.00 | 0.00 | 0.00 | 90 | 1010.2 |
| 20260505073045 | 22 | 175 | 3.2 | 11.3 | 0.00 | 0.00 | 0.00 | 89 | 1010.2 |
| 20260505072527 | 22 | 176 | 3.2 | 17.7 | 0.00 | 0.00 | 0.00 | 89 | 1010.4 |
| 20260505072027 | 22 | 158 | 4.8 | 17.7 | 0.00 | 0.00 | 0.00 | 89 | 1010.5 |
| 20260505071543 | 22 | 165 | 4.8 | 9.7 | 0.00 | 0.00 | 0.00 | 90 | 1010.5 |
| 20260505071026 | 22 | 171 | 3.2 | 8.0 | 0.00 | 0.00 | 0.00 | 89 | 1010.6 |
| 20260505070526 | 22 | 164 | 3.2 | 11.3 | 0.00 | 0.00 | 0.00 | 89 | 1010.7 |
| 20260505070047 | 22 | 163 | 3.2 | 11.3 | 0.00 | 0.00 | 0.00 | 89 | 1010.8 |
| 20260505065527 | 22 | 157 | 3.2 | 11.3 | 0.00 | 0.00 | 0.00 | 89 | 1011.0 |
| 20260505065026 | 22 | 162 | 3.2 | 9.7 | 0.00 | 0.00 | 0.00 | 89 | 1011.0 |
| 20260505064558 | 22 | 170 | 1.6 | 8.0 | 0.00 | 0.00 | 0.00 | 89 | 1011.0 |
| 20260505064027 | 22 | 168 | 4.8 | 8.0 | 0.00 | 0.00 | 0.00 | 90 | 1011.1 |
| 20260505063527 | 22 | 175 | 1.6 | 8.0 | 0.00 | 0.00 | 0.00 | 90 | 1011.4 |
| 20260505063050 | 22 | 173 | 1.6 | 8.0 | 0.00 | 0.00 | 0.00 | 90 | 1011.3 |
| 20260505062527 | 22 | 175 | 3.2 | 8.0 | 0.00 | 0.00 | 0.00 | 90 | 1011.3 |
| 20260505062026 | 22 | 175 | 3.2 | 12.9 | 0.00 | 0.00 | 0.00 | 90 | 1011.3 |
| 20260505061544 | 22 | 175 | 1.6 | 12.9 | 0.00 | 0.00 | 0.00 | 90 | 1011.4 |
| 20260505061026 | 22 | 173 | 3.2 | 8.0 | 0.00 | 0.00 | 0.00 | 90 | 1011.3 |
| 20260505060526 | 22 | 158 | 1.6 | 6.4 | 0.00 | 0.00 | 0.00 | 90 | 1011.3 |
| 20260505060047 | 21 | 150 | 1.6 | 8.0 | 0.00 | 0.00 | 0.00 | 90 | 1011.4 |
| 20260505055527 | 21 | 144 | 3.2 | 8.0 | 0.00 | 0.00 | 0.00 | 90 | 1011.4 |
| 20260505055027 | 21 | 164 | 1.6 | 6.4 | 0.00 | 0.00 | 0.00 | 90 | 1011.4 |
| 20260505054556 | 21 | 165 | 1.6 | 8.0 | 0.00 | 0.00 | 0.00 | 90 | 1011.4 |
| 20260505054026 | 21 | 164 | 3.2 | 8.0 | 0.00 | 0.00 | 0.00 | 90 | 1011.4 |
| 20260505053526 | 21 | 165 | 1.6 | 9.7 | 0.00 | 0.00 | 0.00 | 90 | 1011.5 |
| 20260505053100 | 21 | 165 | 3.2 | 9.7 | 0.00 | 0.00 | 0.00 | 89 | 1011.4 |
| 20260505052527 | 21 | 163 | 1.6 | 8.0 | 0.00 | 0.00 | 0.00 | 89 | 1011.4 |
| 20260505052027 | 21 | 163 | 3.2 | 9.7 | 0.00 | 0.00 | 0.00 | 89 | 1011.4 |
| 20260505051545 | 21 | 165 | 4.8 | 11.3 | 0.00 | 0.00 | 0.00 | 89 | 1011.5 |
| 20260505051029 | 22 | 166 | 4.8 | 11.3 | 0.00 | 0.00 | 0.00 | 88 | 1011.5 |
| 20260505050533 | 22 | 157 | 4.8 | 11.3 | 0.00 | 0.00 | 0.00 | 88 | 1011.5 |
| 20260505041608 | 21 | 165 | 4.8 | 9.7 | 0.00 | 0.00 | 0.00 | 88 | 1011.8 |
| 20260505041029 | 21 | 165 | 3.2 | 8.0 | 0.00 | 0.00 | 0.00 | 87 | 1011.9 |
| 20260505040530 | 21 | 164 | 4.8 | 8.0 | 0.00 | 0.00 | 0.00 | 88 | 1012.1 |
| 20260505040048 | 21 | 165 | 3.2 | 9.7 | 0.00 | 0.00 | 0.00 | 87 | 1012.0 |
| 20260505035529 | 21 | 162 | 3.2 | 9.7 | 0.00 | 0.00 | 0.00 | 87 | 1012.0 |
| 20260505035029 | 21 | 157 | 3.2 | 9.7 | 0.00 | 0.00 | 0.00 | 88 | 1012.3 |
| 20260505034546 | 21 | 165 | 3.2 | 9.7 | 0.00 | 0.00 | 0.00 | 88 | 1012.3 |
| 20260505034031 | 21 | 170 | 3.2 | 8.0 | 0.00 | 0.00 | 0.00 | 88 | 1012.1 |
| 20260505033531 | 21 | 165 | 1.6 | 6.4 | 0.00 | 0.00 | 0.00 | 88 | 1012.1 |
| 20260505033041 | 21 | 166 | 1.6 | 4.8 | 0.00 | 0.00 | 0.00 | 88 | 1012.2 |
| 20260505032529 | 21 | 165 | 1.6 | 3.2 | 0.00 | 0.00 | 0.00 | 88 | 1012.1 |
| 20260505032033 | 21 | 165 | 1.6 | 3.2 | 0.00 | 0.00 | 0.00 | 87 | 1012.1 |
| 20260505031540 | 21 | 165 | 0.0 | 8.0 | 0.00 | 0.00 | 0.00 | 87 | 1012.2 |
| 20260505031029 | 21 | 165 | 4.8 | 8.0 | 0.00 | 0.00 | 0.00 | 87 | 1012.1 |
| 20260505030529 | 21 | 165 | 1.6 | 8.0 | 0.00 | 0.00 | 0.00 | 87 | 1012.1 |
| 20260505030040 | 21 | 163 | 0.0 | 3.2 | 0.00 | 0.00 | 0.00 | 87 | 1012.2 |
| 20260505025529 | 21 | 0 | 0.0 | 4.8 | 0.00 | 0.00 | 0.00 | 86 | 1012.2 |
| 20260505025029 | 21 | 168 | 1.6 | 6.4 | 0.00 | 0.00 | 0.00 | 86 | 1012.1 |
| 20260505024547 | 21 | 167 | 1.6 | 8.0 | 0.00 | 0.00 | 0.00 | 86 | 1012.0 |
| 20260505024029 | 21 | 169 | 3.2 | 8.0 | 0.00 | 0.00 | 0.00 | 86 | 1012.1 |
| 20260505023529 | 21 | 170 | 3.2 | 6.4 | 0.00 | 0.00 | 0.00 | 85 | 1012.2 |
| 20260505023049 | 21 | 172 | 1.6 | 6.4 | 0.00 | 0.00 | 0.00 | 85 | 1012.1 |
| 20260505022532 | 21 | 171 | 1.6 | 6.4 | 0.00 | 0.00 | 0.00 | 85 | 1012.1 |
| 20260505022027 | 21 | 171 | 3.2 | 8.0 | 0.00 | 0.00 | 0.00 | 85 | 1012.1 |
| 20260505021545 | 22 | 165 | 1.6 | 8.0 | 0.00 | 0.00 | 0.00 | 84 | 1012.1 |
| 20260505021026 | 22 | 169 | 3.2 | 8.0 | 0.00 | 0.00 | 0.00 | 84 | 1012.0 |
| 20260505020529 | 22 | 165 | 1.6 | 9.7 | 0.00 | 0.00 | 0.00 | 84 | 1012.2 |
| 20260505020040 | 22 | 161 | 3.2 | 9.7 | 0.00 | 0.00 | 0.00 | 83 | 1012.0 |
| 20260505015530 | 22 | 161 | 3.2 | 9.7 | 0.00 | 0.00 | 0.00 | 83 | 1011.9 |
| 20260505015033 | 22 | 168 | 3.2 | 9.7 | 0.00 | 0.00 | 0.00 | 83 | 1011.9 |
| 20260505014545 | 22 | 169 | 4.8 | 8.0 | 0.00 | 0.00 | 0.00 | 83 | 1011.8 |
| 20260505014029 | 22 | 177 | 3.2 | 8.0 | 0.00 | 0.00 | 0.00 | 83 | 1012.0 |
| 20260505013532 | 22 | 165 | 3.2 | 8.0 | 0.00 | 0.00 | 0.00 | 83 | 1011.9 |
| 20260505013045 | 22 | 172 | 3.2 | 8.0 | 0.00 | 0.00 | 0.00 | 83 | 1012.0 |
| 20260505012529 | 22 | 169 | 1.6 | 9.7 | 0.00 | 0.00 | 0.00 | 83 | 1012.1 |
| 20260505012029 | 22 | 168 | 3.2 | 9.7 | 0.00 | 0.00 | 0.00 | 82 | 1011.9 |
| 20260505011546 | 22 | 164 | 3.2 | 8.0 | 0.00 | 0.00 | 0.00 | 82 | 1011.9 |
| 20260505011029 | 22 | 169 | 4.8 | 12.9 | 0.00 | 0.00 | 0.00 | 82 | 1011.8 |
| 20260505010530 | 22 | 170 | 3.2 | 12.9 | 0.00 | 0.00 | 0.00 | 81 | 1012.0 |
| 20260505010046 | 22 | 171 | 3.2 | 12.9 | 0.00 | 0.00 | 0.00 | 81 | 1011.9 |
| 20260505005530 | 22 | 163 | 6.4 | 12.9 | 0.00 | 0.00 | 0.00 | 81 | 1011.9 |
| 20260505005030 | 22 | 170 | 4.8 | 14.5 | 0.00 | 0.00 | 0.00 | 80 | 1011.8 |
| 20260505004545 | 22 | 177 | 6.4 | 14.5 | 0.00 | 0.00 | 0.00 | 80 | 1011.8 |
| 20260505004029 | 22 | 193 | 6.4 | 16.1 | 0.00 | 0.00 | 0.00 | 80 | 1011.8 |
| 20260505003530 | 22 | 202 | 8.0 | 16.1 | 0.00 | 0.00 | 0.00 | 79 | 1011.7 |
| 20260505003044 | 23 | 159 | 8.0 | 16.1 | 0.00 | 0.00 | 0.00 | 79 | 1011.7 |
| 20260505002531 | 23 | 184 | 8.0 | 17.7 | 0.00 | 0.00 | 0.00 | 79 | 1011.8 |
| 20260505002029 | 23 | 175 | 8.0 | 19.3 | 0.00 | 0.00 | 0.00 | 78 | 1011.9 |
| 20260505001549 | 23 | 171 | 9.7 | 19.3 | 0.00 | 0.00 | 0.00 | 78 | 1011.8 |
| 20260505001029 | 23 | 183 | 11.3 | 19.3 | 0.00 | 0.00 | 0.00 | 78 | 1012.0 |
| 20260505000529 | 23 | 161 | 11.3 | 19.3 | 0.00 | 0.00 | 0.00 | 77 | 1012.0 |
| 20260505000054 | 23 | 159 | 11.3 | 17.7 | 0.00 | 0.00 | 0.00 | 77 | 1012.1 |
| 20260504235529 | 23 | 165 | 8.0 | 16.1 | 0.00 | 0.00 | 0.00 | 77 | 1012.0 |
| 20260504235029 | 23 | 170 | 9.7 | 16.1 | 0.00 | 0.00 | 0.00 | 77 | 1012.0 |
| 20260504234552 | 23 | 164 | 4.8 | 16.1 | 0.00 | 0.00 | 0.00 | 77 | 1012.0 |
| 20260504234026 | 23 | 153 | 6.4 | 16.1 | 0.00 | 0.00 | 0.00 | 77 | 1012.1 |
| 20260504233528 | 23 | 173 | 8.0 | 17.7 | 0.00 | 0.00 | 0.00 | 77 | 1012.2 |
| 20260504233042 | 23 | 147 | 6.4 | 22.5 | 0.00 | 0.00 | 0.00 | 77 | 1012.3 |
| 20260504232529 | 23 | 155 | 12.9 | 22.5 | 0.00 | 0.00 | 0.00 | 76 | 1012.2 |
| 20260504232026 | 23 | 134 | 6.4 | 16.1 | 0.00 | 0.00 | 0.00 | 76 | 1012.3 |
| 20260504231557 | 23 | 165 | 4.8 | 12.9 | 0.00 | 0.00 | 0.00 | 77 | 1012.4 |
| 20260504231029 | 23 | 188 | 6.4 | 14.5 | 0.00 | 0.00 | 0.00 | 77 | 1012.5 |
| 20260504230527 | 23 | 198 | 6.4 | 17.7 | 0.00 | 0.00 | 0.00 | 76 | 1012.5 |
| 20260504230041 | 23 | 360 | 6.4 | 17.7 | 0.00 | 0.00 | 0.00 | 76 | 1012.5 |
| 20260504225526 | 23 | 153 | 8.0 | 19.3 | 0.00 | 0.00 | 0.00 | 76 | 1012.5 |
| 20260504225026 | 23 | 140 | 6.4 | 19.3 | 0.00 | 0.00 | 0.00 | 75 | 1012.5 |
| 20260504224542 | 24 | 157 | 9.7 | 17.7 | 0.00 | 0.00 | 0.00 | 75 | 1012.6 |
| 20260504224032 | 24 | 153 | 6.4 | 16.1 | 0.00 | 0.00 | 0.00 | 74 | 1012.7 |
| 20260504223534 | 24 | 206 | 8.0 | 17.7 | 0.00 | 0.00 | 0.00 | 75 | 1012.8 |
| 20260504223047 | 23 | 153 | 8.0 | 17.7 | 0.00 | 0.00 | 0.00 | 75 | 1013.0 |
| 20260504222530 | 23 | 153 | 6.4 | 17.7 | 0.00 | 0.00 | 0.00 | 76 | 1013.1 |
| 20260504222028 | 23 | 177 | 6.4 | 17.7 | 0.00 | 0.00 | 0.00 | 75 | 1013.1 |
| 20260504221556 | 23 | 157 | 3.2 | 12.9 | 0.00 | 0.00 | 0.00 | 76 | 1013.0 |
| 20260504221030 | 23 | 146 | 3.2 | 12.9 | 0.00 | 0.00 | 0.00 | 75 | 1013.0 |
| 20260504220528 | 23 | 163 | 4.8 | 16.1 | 0.00 | 0.00 | 0.00 | 75 | 1013.1 |
| 20260504220046 | 23 | 168 | 8.0 | 16.1 | 0.00 | 0.00 | 0.00 | 74 | 1013.1 |
| 20260504215526 | 24 | 141 | 3.2 | 17.7 | 0.00 | 0.00 | 0.00 | 75 | 1013.2 |
| 20260504215031 | 23 | 174 | 8.0 | 17.7 | 0.00 | 0.00 | 0.00 | 75 | 1013.2 |
| 20260504214548 | 24 | 161 | 8.0 | 17.7 | 0.00 | 0.00 | 0.00 | 74 | 1013.2 |
| 20260504214030 | 24 | 167 | 9.7 | 16.1 | 0.00 | 0.00 | 0.00 | 74 | 1013.3 |
| 20260504213528 | 24 | 200 | 4.8 | 19.3 | 0.00 | 0.00 | 0.00 | 74 | 1013.4 |
| 20260504213044 | 24 | 172 | 9.7 | 19.3 | 0.00 | 0.00 | 0.00 | 74 | 1013.3 |
| 20260504212529 | 24 | 172 | 8.0 | 20.9 | 0.00 | 0.00 | 0.00 | 73 | 1013.3 |
| 20260504212027 | 25 | 180 | 6.4 | 20.9 | 0.00 | 0.00 | 0.00 | 73 | 1013.3 |
| 20260504211548 | 25 | 167 | 9.7 | 22.5 | 0.00 | 0.00 | 0.00 | 73 | 1013.4 |
| 20260504211027 | 24 | 158 | 9.7 | 22.5 | 0.00 | 0.00 | 0.00 | 73 | 1013.7 |
| 20260504210527 | 25 | 162 | 4.8 | 16.1 | 0.00 | 0.00 | 0.00 | 72 | 1013.7 |
| 20260504210105 | 25 | 178 | 8.0 | 16.1 | 0.00 | 0.00 | 0.00 | 73 | 1013.6 |
| 20260504205526 | 25 | 158 | 8.0 | 16.1 | 0.00 | 0.00 | 0.00 | 72 | 1013.7 |
| 20260504205025 | 25 | 169 | 8.0 | 14.5 | 0.00 | 0.00 | 0.00 | 73 | 1013.7 |
| 20260504204548 | 25 | 172 | 4.8 | 19.3 | 0.00 | 0.00 | 0.00 | 73 | 1013.9 |
| 20260504204026 | 25 | 166 | 4.8 | 22.5 | 0.00 | 0.00 | 0.00 | 72 | 1013.8 |
| 20260504203527 | 25 | 190 | 8.0 | 22.5 | 0.00 | 0.00 | 0.00 | 72 | 1014.0 |
| 20260504203049 | 25 | 157 | 4.8 | 17.7 | 0.00 | 0.00 | 0.00 | 73 | 1014.0 |
| 20260504202527 | 25 | 173 | 8.0 | 17.7 | 0.00 | 0.00 | 0.00 | 69 | 1013.9 |
| 20260504202027 | 25 | 194 | 3.2 | 19.3 | 0.00 | 0.00 | 0.00 | 69 | 1014.1 |
| 20260504201547 | 25 | 152 | 3.2 | 19.3 | 0.00 | 0.00 | 0.00 | 69 | 1014.2 |
| 20260504201028 | 25 | 158 | 6.4 | 19.3 | 0.00 | 0.00 | 0.00 | 70 | 1014.3 |
| 20260504200526 | 25 | 180 | 4.8 | 20.9 | 0.00 | 0.00 | 0.00 | 69 | 1014.2 |
| 20260504200046 | 25 | 144 | 11.3 | 20.9 | 0.00 | 0.00 | 0.00 | 69 | 1014.3 |
| 20260504195526 | 26 | 162 | 1.6 | 19.3 | 0.00 | 0.00 | 0.00 | 69 | 1014.3 |
| 20260504195027 | 25 | 201 | 6.4 | 19.3 | 0.00 | 0.00 | 0.00 | 71 | 1014.2 |
| 20260504194559 | 25 | 149 | 4.8 | 17.7 | 0.00 | 0.00 | 0.00 | 70 | 1014.4 |
| 20260504194026 | 25 | 175 | 4.8 | 17.7 | 0.00 | 0.00 | 0.00 | 71 | 1014.5 |
| 20260504193525 | 25 | 130 | 11.3 | 19.3 | 0.00 | 0.00 | 0.00 | 67 | 1014.7 |
| 20260504193048 | 26 | 169 | 4.8 | 19.3 | 0.00 | 0.00 | 0.00 | 69 | 1014.8 |
| 20260504192529 | 25 | 173 | 9.7 | 20.9 | 0.00 | 0.00 | 0.00 | 70 | 1014.9 |
| 20260504192029 | 25 | 171 | 11.3 | 20.9 | 0.00 | 0.00 | 0.00 | 69 | 1014.7 |
| 20260504191549 | 26 | 184 | 4.8 | 19.3 | 0.00 | 0.00 | 0.00 | 68 | 1014.7 |
| 20260504191026 | 25 | 175 | 6.4 | 22.5 | 0.00 | 0.00 | 0.00 | 68 | 1014.9 |
| 20260504190532 | 25 | 156 | 12.9 | 25.7 | 0.00 | 0.00 | 0.00 | 68 | 1015.0 |
| 20260504190108 | 25 | 194 | 8.0 | 25.7 | 0.00 | 0.00 | 0.00 | 68 | 1015.0 |
| 20260504185532 | 25 | 165 | 6.4 | 25.7 | 0.00 | 0.00 | 0.00 | 67 | 1015.0 |
| 20260504185031 | 25 | 275 | 9.7 | 19.3 | 0.00 | 0.00 | 0.00 | 69 | 1014.9 |
| 20260504184555 | 25 | 151 | 8.0 | 19.3 | 0.00 | 0.00 | 0.00 | 69 | 1015.0 |
| 20260504184027 | 25 | 181 | 4.8 | 19.3 | 0.00 | 0.00 | 0.00 | 70 | 1015.0 |
| 20260504183530 | 25 | 150 | 12.9 | 24.1 | 0.00 | 0.00 | 0.00 | 69 | 1015.1 |
| 20260504183044 | 25 | 194 | 9.7 | 25.7 | 0.00 | 0.00 | 0.00 | 69 | 1015.2 |
| 20260504182527 | 25 | 155 | 9.7 | 25.7 | 0.00 | 0.00 | 0.00 | 69 | 1015.3 |
| 20260504182027 | 25 | 171 | 12.9 | 25.7 | 0.00 | 0.00 | 0.00 | 68 | 1015.3 |
| 20260504181553 | 26 | 184 | 4.8 | 14.5 | 0.00 | 0.00 | 0.00 | 72 | 1015.5 |
| 20260504181026 | 25 | 165 | 4.8 | 20.9 | 0.00 | 0.00 | 0.00 | 72 | 1015.6 |
| 20260504180526 | 25 | 179 | 6.4 | 20.9 | 0.00 | 0.00 | 0.00 | 69 | 1015.5 |
| 20260504180122 | 25 | 154 | 11.3 | 22.5 | 0.00 | 0.00 | 0.00 | 69 | 1015.7 |
| 20260504175527 | 25 | 190 | 12.9 | 22.5 | 0.00 | 0.00 | 0.00 | 69 | 1015.6 |
| 20260504175026 | 25 | 156 | 4.8 | 17.7 | 0.00 | 0.00 | 0.00 | 69 | 1015.7 |
| 20260504174549 | 24 | 172 | 8.0 | 17.7 | 0.00 | 0.00 | 0.00 | 69 | 1015.8 |
| 20260504174026 | 24 | 198 | 9.7 | 19.3 | 0.00 | 0.00 | 0.00 | 69 | 1015.9 |
| 20260504173526 | 25 | 170 | 8.0 | 19.3 | 0.00 | 0.00 | 0.00 | 68 | 1016.0 |
| 20260504173053 | 25 | 149 | 8.0 | 17.7 | 0.00 | 0.00 | 0.00 | 70 | 1016.0 |
| 20260504172526 | 25 | 155 | 6.4 | 20.9 | 0.00 | 0.00 | 0.00 | 70 | 1015.9 |
| 20260504172027 | 25 | 152 | 11.3 | 20.9 | 0.00 | 0.00 | 0.00 | 70 | 1016.1 |
| 20260504171546 | 25 | 123 | 8.0 | 22.5 | 0.00 | 0.00 | 0.00 | 70 | 1016.2 |
| 20260504171027 | 25 | 192 | 9.7 | 22.5 | 0.00 | 0.00 | 0.00 | 68 | 1016.1 |
| 20260504170526 | 25 | 148 | 6.4 | 19.3 | 0.00 | 0.00 | 0.00 | 69 | 1016.1 |
| 20260504151028 | 24 | 167 | 9.7 | 19.3 | 0.00 | 0.00 | 0.00 | 72 | 1016.7 |
| 20260504150527 | 23 | 143 | 4.8 | 20.9 | 0.00 | 0.00 | 0.00 | 72 | 1016.8 |
| 20260504141027 | 22 | 148 | 3.2 | 8.0 | 0.00 | 0.00 | 0.00 | 79 | 1016.5 |
| 20260504140526 | 22 | 167 | 3.2 | 11.3 | 0.00 | 0.00 | 0.00 | 80 | 1016.4 |
| 20260504130530 | 15 | 0 | 0.0 | 0.0 | 0.00 | 0.00 | 0.00 | 98 | 1016.7 |
| 20260504120109 | 12 | 0 | 0.0 | 0.0 | 0.00 | 0.00 | 0.00 | 97 | 1016.4 |
| 20260504110529 | 12 | 0 | 0.0 | 0.0 | 0.00 | 0.00 | 0.00 | 97 | 1016.4 |